COSMOS 1691 DEB, 43317

Orbit data source: Space-Track

COSMOS 1691 DEB, 43317 is space debris in LEO originally from a launch on Wed, 09 Oct 1985 UTC launched from the Plesetsk Missile And Space Complex (PKMTR). Debris objects in space refer to the collection of defunct objects orbiting the Earth. Examples of debris include non-operational satellites, rocket bodies, and fragments generated from explosions, collisions, or faulty payload assembly.

Loading next visibility...
Identifier
43317, 1985-094AB
Orbit
LEO
Country
Flag of CISCIS
Related business
Manufacturer
Unknown
Mission
Spacecraft
Bus & Motor
Unknown
Mass
Unknown
Launch date (UTC)
1985-10-09 (41 years ago)
Launch vehicle
Unknown
Launch site
Plesetsk Missile And Space Complex (PKMTR)
Object type
Payload
Rocket body
Debris
Shape & HBR
Unknown shape, 0.1 m
Radar Cross Section
Small (<0.1 m²)

Expand to show TLE details & history
Last TLE update: 1 week ago

TLE from 1 week ago
0 COSMOS 1691 DEB
1 43317U 85094AB  26165.42042663  .00000385  00000-0  17149-2 0  9991
2 43317  82.5563  52.2330 0022226 349.3656  10.6970 12.76845740584907
Epoch: 2026-06-14T10:05Z
TLE epoch observation values (Epoch: 2026-06-14T10:05:24.860Z)
Latitude
-0.00008°
Longitude
-1.84201°
Altitude
1,340.04 km
Speed
7.196 km/s
True Right ascension
03h 28m 55s
True Declination
0° 00' 00"
Sunlit
Object was in daylight at epoch
Visualization orbit readout
Latitude
Unknown
Longitude
Unknown
Altitude
Unknown
Speed
Unknown
Apparent Right ascension
Unknown
Apparent Declination
Unknown
Sunlit
N/A
Visualization observer readout
Local Sidereal Time
21:37:42
Azimuth
Unknown
Elevation
Unknown
Doppler factor
Unknown
Orbital elements
Apogee altitude
1,368.659 km
Perigee altitude
1,334.299 km
Semi-major axis
7,729.616 km
Eccentricity
0.00222
Inclination
82.5563°
RAAN
52.233°
Arg. of periapsis
349.3656°
True anomaly
10.7444°
Mean anomaly
10.697°
Eccentric anomaly
10.72069°
Mean motion
3.19379 °/min
Orbital period
112.72 mins
BSTAR
0.0017149
Loading maneuver chart data...
Computing Atmospheric mass density...
Loading historical data...
Loading historical data...
Loading historical data...
Loading historical data...
Loading historical data...
Loading historical data...
Loading historical data...

Documentation

Showing up to 5 results
|